Tracking 19562 objects as of 22-Mar-2019
HD Live streaming from Space Station
objects crossing your sky now

FENGYUN 1C DEB

Track FENGYUN 1C DEB now!
10-day predictions


NORAD ID: 30362
Int'l Code: 1999-025ABZ
Perigee: 831.8 km
Apogee: 998.0 km
Inclination: 99.0 °
Period: 103.2 minutes
Semi major axis: 7285 km
RCS: 0.04 m2 (small)
Launch date: May 10, 1999
Source: People's Republic of China (PRC)
Launch site: Taiyaun Space Center, China (TSC)

Note: This is SATELLITE DEBRIS
aabbcc
Your satellite tracking list
Your tracking list is empty




NASA's NSSDC Master Catalog

Two Line Element Set (TLE):
1 30362U 99025ABZ 19080.70896555  .00000323  00000-0  25431-3 0  9998
2 30362  99.0471 356.7972 0114043 296.0694  62.8765 13.95978372617691
Source of the keplerian elements: AFSPC